Вернуться в каталог

STARLINK-6143

АктивенСвязьVLEO
NORAD 57133·PAYLOAD·🇺🇸 United States

Запущен Jun 23, 2023 с Cape Canaveral Space Force Station

Loading…

Ближайшие Пролёты (ближайшие 24 часа)

TLE

СвежийSource: CelesTrak SupGP

Эпоха: Sep 15, 2026, 03:16 UTC

1 57133C 23090AJ  26258.13659722 -.00016766  00000+0 -60732-3 0  2587
2 57133  43.0020 273.3773 0001906 271.2606 234.0200 15.27582699    18

Отслеживайте STARLINK-6143 в реальном времени с AllMySat

Download on the App Store